This demonstration page uses our WeatherBlox Daily Observations layout. Learn more.

Left ArrowRight Arrow

39.12711, -84.51439

Hourly Observations for January 13, 2017

Temp ( °F °C ) Dew Point ( °F °C ) Humidity (%) Winds ( mph kmh ) Pressure ( in mb ) Visibility ( mi km ) Precip ( " mm )
12:53 am 00:53 Cloudy 37 2.8 33 0.6 86 86 VRB 7 11 30.45 1031 10 16 N/A
1:53 am 01:53 Cloudy 37 2.8 32 undefined 82 82 NNW 9 15 30.47 1032 10 16 N/A
2:53 am 02:53 Cloudy 36 2.2 32 undefined 86 86 N 9 15 30.49 1032 10 16 N/A
3:53 am 03:53 Cloudy 37 2.8 32 undefined 82 82 NNW 6 9 30.54 1034 10 16 N/A
4:53 am 04:53 Cloudy 36 2.2 32 undefined 86 86 N 6 9 30.56 1035 10 16 N/A
5:53 am 05:53 Cloudy 36 2.2 29 -1.7 76 76 NNE 8 13 30.57 1035 10 16 N/A
6:53 am 06:53 Cloudy 35 1.7 30 -1.1 82 82 N 8 13 30.60 1036 10 16 N/A
7:53 am 07:53 Cloudy 35 1.7 29 -1.7 78 78 N 9 15 30.63 1037 10 16 N/A
8:53 am 08:53 Cloudy 35 1.7 29 -1.7 78 78 NE 9 15 30.66 1038 10 16 N/A
9:53 am 09:53 Cloudy 35 1.7 29 -1.7 78 78 NE 10 17 30.67 1039 10 16 N/A
10:53 am 10:53 Cloudy 38 3.3 30 -1.1 73 73 N 9 15 30.69 1039 10 16 N/A
11:53 am 11:53 Sunny 38 3.3 29 -1.7 70 70 ENE 7 11 30.69 1039 10 16 N/A
12:53 pm 12:53 Sunny 37 2.8 28 -2.2 70 70 NE 13 20 30.67 1039 10 16 N/A
1:53 pm 13:53 Mostly Cloudy 38 3.3 29 -1.7 70 70 ENE 9 15 30.64 1038 10 16 N/A
2:53 pm 14:53 Mostly Cloudy 36 2.2 28 -2.2 73 73 NE 9 15 30.65 1038 10 16 N/A
3:53 pm 15:53 Cloudy 36 2.2 28 -2.2 73 73 ENE 12 19 30.65 1038 10 16 N/A
4:53 pm 16:53 Cloudy 36 2.2 28 -2.2 73 73 NE 12 19 30.66 1038 10 16 N/A
5:53 pm 17:53 Cloudy 36 2.2 28 -2.2 73 73 ENE 13 20 30.66 1038 10 16 N/A
6:53 pm 18:53 Cloudy 36 2.2 29 -1.7 76 76 NE 8 13 30.66 1038 10 16 N/A
7:53 pm 19:53 Cloudy with Light Rain 35 1.7 30 -1.1 82 82 NE 8 13 30.67 1039 10 16 0.01 0.25
8:53 pm 20:53 Cloudy with Light Rain 35 1.7 30 -1.1 82 82 ENE 6 9 30.64 1038 10 16 N/A
9:53 pm 21:53 Cloudy with Light Rain 35 1.7 32 undefined 89 89 NE 5 7 30.63 1037 7 11 0.02 0.51
10:53 pm 22:53 Cloudy with Light Rain 35 1.7 33 0.6 93 93 N 5 7 30.61 1037 9 14 0.01 0.25
11:53 pm 23:53 Cloudy 35 1.7 33 0.6 93 93 N N/A 30.58 1036 9 14 0.01 0.25

Powered by AerisWeather